Search for airport 
image banner adimage banner adimage banner ad
image banner ad

PS41 - Upmc-Horizon Hospital/Shenango Campus

Located in Farrell, United States

ICAO - PS41, IATA -

Data provided by Airmate  

General information

Coordinates: N41°12'35" W80°28'8"
Elevation is 1121 feet MSL.
Magnetic variation is -09° East
View others Airports in Pennsylvania

Operational data

Special qualification required
Current time UTC:
Current local time:
Weather at : KYNG - Youngstown-Warren Rgnl ( 19 km )
METAR: KYNG 260951Z 21004KT 10SM CLR 08/06 A3001 RMK AO2 SLP164 T00830061
TAF: KYNG 260535Z 2606/2706 VRB03KT P6SM FEW070 FM261500 25010G18KT P6SM SCT120 FM262300 22008KT P6SM SCT120
View NOTAMs / SUP AIP / TFR affecting this airport [VIEW]
Communications frequencies: [VIEW]

Runways:

Airport contact information

Address: Farrell United States

Satellite view of PS41